Regional Weather Roundup
Issued by NWS

Home | Current Version | Previous Version | Text Only | Print | Product List | Glossary On
Versions: 1 2 3 4 5 6 7 8 9 10 11 12 13 14 15 16 17 18 19 20 21 22 23 24 25 26 27
000
ASCA42 TJSJ 280410
RWRPR
PUERTO RICO/U.S. VIRGIN ISLANDS HOURLY WEATHER ROUNDUP
NATIONAL WEATHER SERVICE SAN JUAN PR
1200 AM AST SAT MAY 28 2016

PRZ001-004-280500-
PUERTO RICO

CITY           SKY/WX    TMP DP  RH WIND       PRES   REMARKS
SAN JUAN LMM   PTCLDY    79  75  89 E3        29.99F
PONCE          PTCLDY    79  73  83 NE6       29.97F
AGUADILLA      PTCLDY    79  72  78 CALM      29.99F
CEIBA          PTCLDY    79  77  94 E3        30.01F
$$

PRZ006-007-280500-
U.S. VIRGIN ISLANDS

CITY           SKY/WX    TMP DP  RH WIND       PRES   REMARKS
CHARLOTTE AMA  LGT RAIN  82  75  78 E14       29.99S
CHRISTIANSTED  MOCLDY    81  75  83 E7        29.99F
$$

HOURLY WEATHER ROUNDUP FOR THE NEWS MEDIA

CITY           SKY/WX    TMP DP  RH WIND       PRES   REMARKS
ORLANDO        CLEAR     75  68  78 NE6       30.02S
NEW YORK       PTCLDY    68  59  73 SW10      30.09R
NEWARK         PTCLDY    76  64  66 S13       30.06R
CHICAGO        LGT RAIN  69  65  86 S15G22    29.88R
HARTFORD       CLEAR     66  55  67 SW13      30.08R
BOSTON         CLEAR     70  61  73 S13       30.04R
DALLAS         PTCLDY    68  64  87 SE13      29.80R
PHILADELPHIA   PTCLDY    74  62  66 S8        30.10R
LOS ANGELES    MOCLDY    60  54  80 SW7       29.89R
WASHINGTON DC  FAIR      76  67  73 S6        30.09S



USA.gov is the U.S. government's official web portal to all federal, state and local government web resources and services.